Regional Weather Roundup
Issued by NWS

Home | Current Version | Previous Version | Text Only | Print | Product List | Glossary Off
Versions: 1 2 3 4 5 6 7 8 9 10 11 12 13 14 15 16 17 18 19 20 21 22 23 24 25 26 27 28 29 30 31 32 33 34 35 36 37 38 39 40 41 42 43 44 45 46 47 48 49 50

000
ASUS43 KLSX 040410
RWRMO

WEATHER SUMMARY FOR MISSOURI
NATIONAL WEATHER SERVICE SPRINGFIELD MO
1100 PM CDT TUE MAY 03 2016

NOTE: "FAIR" INDICATES FEW OR NO CLOUDS BELOW 12,000 FEET WITH NO
       SIGNIFICANT WEATHER AND/OR OBSTRUCTIONS TO VISIBILITY.
       CURRENT SKY AND/OR WEATHER CONDITIONS ARE NOT AVAILABLE FOR
       CHILLICOTHE AND FARMINGTON.

MOZ001>031-035>038-043-044-053-054-040500-
...NORTHERN AND WESTERN MISSOURI...

CITY           SKY/WX    TMP DP  RH WIND       PRES   REMARKS
KANSAS CTY INT CLEAR     54  43  66 SW7       29.92F
KANSAS C DTWN  CLEAR     58  45  62 SW6       29.92F
LEE`S SUMMIT   CLEAR     57  45  64 SW6       29.93F
ST JOSEPH      CLEAR     59  43  55 W10       29.90F
CHILLICOTHE      N/A     57  45  64 SW3       29.88F
KIRKSVILLE     CLEAR     55  41  59 SW7       29.85F

$$
MOZ066>068-077>081-088>096-101>105-040500-
...SOUTHWEST MISSOURI...

CITY           SKY/WX    TMP DP  RH WIND       PRES   REMARKS
SPRINGFIELD    CLEAR     50  41  71 SW7       29.97F
JOPLIN         CLEAR     51  46  83 S7        29.99F

$$
MOZ032>034-039>042-045>050-055>058-069>072-040500-
...CENTRAL MISSOURI...

CITY           SKY/WX    TMP DP  RH WIND       PRES   REMARKS
COLUMBIA       CLEAR     53  43  68 SW9       29.90F
JEFFERSON CITY CLEAR     54  45  71 CALM      29.91F
ROLLA          CLEAR     47  40  76 SW9       29.92F
SEDALIA        CLEAR     56  44  64 SW8       29.93F
WHITEMAN AFB   CLEAR     55  44  67 SW7       29.91F
WARRENSBURG    CLEAR     55  43  62 SW6       29.92F
OSAGE BEACH    CLEAR     48  37  66 CALM      29.94F

$$
MOZ051-052-059>065-040500-
...EAST CENTRAL MISSOURI...

CITY           SKY/WX    TMP DP  RH WIND       PRES   REMARKS
ST LOUIS INTL  PTCLDY    58  42  55 SW8       29.89F
SPIRIT OF STL  PTCLDY    51  45  79 W5        29.89F
ST CHARLES     CLOUDY    55  49  80 S3        29.88F

$$
MOZ072>076-082>087-097>100-106>115-040500-
...SOUTH CENTRAL AND SOUTHEAST MISSOURI...

CITY           SKY/WX    TMP DP  RH WIND       PRES   REMARKS
CAPE GIRARDEAU CLEAR     50  48  93 CALM      29.94F
FARMINGTON     CLEAR     47  45  93 CALM      29.94F
POPLAR BLUFF   CLEAR     53  50  89 CALM      29.95F
WEST PLAINS    CLEAR     49  41  74 CALM      29.99S

$$




USA.gov is the U.S. government's official web portal to all federal, state and local government web resources and services.